Weather History for Drummond Island, MI

Change the Weather History Date:

Monday, September 30, 2013

  Actual Average (KCIU) Record (KCIU)
Temperature  
Mean Temperature 52 °F -  
Max Temperature 64 °F 57 °F 76 °F (1983)
Min Temperature 41 °F 39 °F 20 °F (1993)
Degree Days  
Heating Degree Days 12    
Growing Degree Days 2 (Base 50)    
Moisture  
Dew Point 48 °F    
Average Humidity 83    
Maximum Humidity 100    
Minimum Humidity 49    
Precipitation  
Precipitation 0.00 in - - ()
Sea Level Pressure  
Sea Level Pressure 29.95 in    
Wind  
Wind Speed 2 mph (SSE)    
Max Wind Speed 7 mph    
Max Gust Speed -    
Visibility 7 miles    
Events Fog    
Averages and records for this station are not official NWS values.
T = Trace of Precipitation, MM = Missing Value Source: NWS Daily Summary

Daily Weather History Graph

Daily Weather History Graph

Search for Another Location

Airport:

Trip Planner

Search our weather history database for the weather conditions in past years. The results will help you decide how hot, cold, wet, or windy it might be!

Date:

Astronomy

Sep. 30, 2013 Rise Set
Actual Time 7:32 AM EDT 7:16 PM EDT
Civil Twilight 7:02 AM EDT 7:46 PM EDT
Nautical Twilight 6:27 AM EDT 8:20 PM EDT
Astronomical Twilight 5:52 AM EDT 8:56 PM EDT
Moon 2:56 AM EDT (9/30) 4:57 PM EDT (9/30)
Length of Visible Light 12h 43m
Length of Day
11h 44m
Waning Crescent, 19% of the Moon is Illuminated
Sep 30
Waning Crescent
Oct 4
New
Oct 11
First Quarter
Oct 18
Full
Oct 26
Last Quarter

Hourly Weather History & Observations

Time (EDT) Temp. Dew Point Humidity Pressure Visibility Wind Dir Wind Speed Gust Speed Precip Events Conditions
12:15 AM 47.8 °F 47.5 °F 99% 30.00 in 1.0 mi Calm Calm - N/A   Mist
12:35 AM 48.2 °F 48.2 °F 100% 30.00 in 0.8 mi Calm Calm - N/A   Mist
12:55 AM 46.9 °F 46.9 °F 100% 30.01 in 0.5 mi Calm Calm - N/A Fog Fog
1:16 AM 45.0 °F 44.8 °F 99% 30.00 in 1.0 mi Calm Calm - N/A   Mist
1:35 AM 46.0 °F 46.0 °F 100% 30.01 in 1.0 mi Calm Calm - N/A   Mist
1:55 AM 46.0 °F 46.0 °F 100% 30.01 in 0.5 mi Calm Calm - N/A Fog Fog
2:16 AM 45.7 °F 45.7 °F 100% 30.00 in 0.5 mi Calm Calm - N/A Fog Fog
2:35 AM 44.8 °F 44.8 °F 100% 30.00 in 2.0 mi Calm Calm - N/A   Clear
2:55 AM 45.0 °F 45.0 °F 100% 30.00 in 0.8 mi Calm Calm - N/A   Mist
3:15 AM 44.8 °F 44.8 °F 100% 30.00 in 0.8 mi Calm Calm - N/A   Mist
3:35 AM 44.1 °F 44.1 °F 100% 30.00 in 1.2 mi Calm Calm - N/A   Mist
3:55 AM 44.1 °F 44.1 °F 100% 29.99 in - Calm Calm - N/A   Unknown
4:15 AM 43.7 °F 43.7 °F 100% 29.99 in 0.5 mi Calm Calm - N/A Fog Fog
4:35 AM 43.3 °F 43.3 °F 100% 29.99 in - Calm Calm - N/A   Unknown
4:55 AM 43.5 °F 43.5 °F 100% 29.99 in 1.2 mi Calm Calm - N/A   Mist
5:15 AM 43.0 °F 43.0 °F 100% 29.99 in 1.0 mi Calm Calm - N/A   Mist
5:35 AM 43.2 °F 43.2 °F 100% 29.99 in 0.8 mi Calm Calm - N/A   Mist
5:55 AM 42.8 °F 42.8 °F 100% 29.99 in 0.8 mi Calm Calm - N/A   Mostly Cloudy
6:15 AM 43.0 °F 43.0 °F 100% 29.99 in 0.8 mi Calm Calm - N/A   Overcast
6:36 AM 43.0 °F 43.0 °F 100% 30.00 in 0.5 mi Calm Calm - N/A Fog Fog
6:55 AM 41.4 °F 41.4 °F 100% 30.00 in 4.0 mi Calm Calm - N/A   Clear
7:15 AM 42.4 °F 42.4 °F 100% 30.00 in 1.2 mi Calm Calm - N/A   Scattered Clouds
7:36 AM 42.1 °F 42.1 °F 100% 30.00 in 0.2 mi Calm Calm - N/A Fog Fog
7:55 AM 41.7 °F 41.7 °F 100% 30.00 in 0.5 mi Calm Calm - N/A Fog Fog
8:15 AM 43.3 °F 43.3 °F 100% 30.00 in 0.8 mi Calm Calm - N/A   Mostly Cloudy
8:36 AM 45.9 °F 45.9 °F 100% 30.00 in 0.2 mi Calm Calm - N/A Fog Fog
8:55 AM 47.8 °F 47.8 °F 100% 29.99 in 7.0 mi Calm Calm - N/A   Scattered Clouds
9:15 AM 51.6 °F 51.6 °F 100% 29.99 in 10.0 mi Calm Calm - N/A   Clear
9:35 AM 54.7 °F 54.7 °F 100% 29.99 in 10.0 mi SSE 3.5 mph - N/A   Clear
9:55 AM 55.9 °F 55.9 °F 100% 29.98 in 10.0 mi SE 3.5 mph - N/A   Clear
10:15 AM 57.0 °F 54.7 °F 92% 29.97 in 10.0 mi SE 3.5 mph - N/A   Clear
10:35 AM 58.1 °F 54.1 °F 87% 29.98 in 10.0 mi SE 4.6 mph - N/A   Clear
10:55 AM 59.0 °F 53.8 °F 83% 29.97 in 10.0 mi SE 4.6 mph - N/A   Clear
11:15 AM 60.3 °F 53.4 °F 78% 29.96 in 10.0 mi SE 4.6 mph - N/A   Clear
11:35 AM 61.9 °F 51.8 °F 69% 29.96 in 10.0 mi SE 3.5 mph - N/A   Clear
11:55 AM 63.5 °F 50.9 °F 63% 29.95 in 10.0 mi SSE 4.6 mph - N/A   Clear
12:16 PM 63.0 °F 49.3 °F 61% 29.95 in 10.0 mi South 4.6 mph - N/A   Clear
12:35 PM 64.6 °F 50.9 °F 61% 29.96 in 10.0 mi SSW 5.8 mph - N/A   Clear
12:55 PM 63.3 °F 48.0 °F 57% 29.96 in 10.0 mi SSW 4.6 mph - N/A   Clear
1:16 PM 62.8 °F 49.1 °F 61% 29.96 in 10.0 mi SSE 4.6 mph - N/A   Clear
1:35 PM 62.1 °F 48.4 °F 61% 29.95 in 10.0 mi South 5.8 mph - N/A   Clear
1:55 PM 62.4 °F 48.7 °F 61% 29.95 in 10.0 mi SSW 5.8 mph - N/A   Clear
2:15 PM 62.2 °F 48.6 °F 61% 29.93 in 10.0 mi SSE 5.8 mph - N/A   Clear
2:35 PM 63.1 °F 47.7 °F 57% 29.93 in 10.0 mi SSE 5.8 mph - N/A   Clear
2:56 PM 64.0 °F 47.3 °F 54% 29.93 in 10.0 mi SE 6.9 mph - N/A   Clear
3:15 PM 64.4 °F 46.0 °F 51% 29.93 in 10.0 mi SE 4.6 mph - N/A   Clear
3:35 PM 64.4 °F 46.0 °F 51% 29.92 in 10.0 mi SSE 5.8 mph - N/A   Clear
3:55 PM 64.2 °F 44.6 °F 49% 29.91 in 10.0 mi SSE 4.6 mph - N/A   Clear
4:15 PM 64.4 °F 44.6 °F 49% 29.90 in 10.0 mi SSE 4.6 mph - N/A   Clear
4:35 PM 63.9 °F 44.8 °F 50% 29.90 in 10.0 mi SE 3.5 mph - N/A   Clear
4:55 PM 63.7 °F 45.3 °F 51% 29.89 in 10.0 mi SE 4.6 mph - N/A   Clear
5:15 PM 63.7 °F 44.2 °F 49% 29.89 in 10.0 mi SSE 3.5 mph - N/A   Clear
5:36 PM 62.8 °F 45.0 °F 52% 29.89 in 10.0 mi SE 4.6 mph - N/A   Clear
5:55 PM 61.0 °F 46.6 °F 59% 29.88 in 10.0 mi Calm Calm - N/A   Clear
6:15 PM 60.1 °F 47.8 °F 64% 29.89 in 10.0 mi SSE 3.5 mph - N/A   Clear
6:36 PM 59.2 °F 48.6 °F 68% 29.89 in 10.0 mi SSE 3.5 mph - N/A   Clear
6:55 PM 57.7 °F 49.3 °F 73% 29.89 in 10.0 mi SE 3.5 mph - N/A   Clear
7:15 PM 56.8 °F 49.8 °F 77% 29.89 in 10.0 mi SSE 4.6 mph - N/A   Clear
7:35 PM 56.3 °F 51.1 °F 83% 29.89 in 10.0 mi SE 3.5 mph - N/A   Clear
7:55 PM 56.1 °F 50.9 °F 83% 29.89 in 10.0 mi SSE 4.6 mph - N/A   Clear
8:16 PM 55.4 °F 51.4 °F 87% 29.89 in 10.0 mi SE 3.5 mph - N/A   Clear
8:35 PM 55.4 °F 52.2 °F 89% 29.89 in 10.0 mi SE 4.6 mph - N/A   Clear
8:55 PM 56.3 °F 52.7 °F 88% 29.88 in 10.0 mi SSE 5.8 mph - N/A   Clear
9:15 PM 57.0 °F 53.4 °F 88% 29.88 in 10.0 mi SSE 6.9 mph - N/A   Clear
9:35 PM 57.2 °F 53.6 °F 88% 29.89 in 10.0 mi SSE 6.9 mph - N/A   Clear
9:55 PM 57.2 °F 54.1 °F 89% 29.89 in 10.0 mi SSE 5.8 mph - N/A   Clear
10:15 PM 57.4 °F 54.5 °F 90% 29.88 in 10.0 mi SSE 5.8 mph - N/A   Clear
10:35 PM 57.6 °F 54.9 °F 91% 29.88 in 10.0 mi SSE 5.8 mph - N/A   Clear
10:55 PM 58.3 °F 54.5 °F 87% 29.88 in 10.0 mi South 5.8 mph - N/A   Clear
11:15 PM 59.0 °F 53.6 °F 82% 29.88 in 10.0 mi SSE 4.6 mph - N/A   Clear
11:35 PM 59.0 °F 53.1 °F 81% 29.88 in 10.0 mi SSE 5.8 mph - N/A   Clear
11:55 PM 59.2 °F 52.2 °F 78% 29.88 in 10.0 mi South 5.8 mph - N/A   Clear